Regional Weather Roundup
Issued by NWS

Current Version | Previous Version | Text Only | Print | Product List | Glossary On
Versions: 1 2 3 4 5 6 7 8 9 10 11 12 13 14 15 16 17 18 19 20 21 22 23 24 25 26 27 28 29 30 31 32 33 34 35 36 37 38 39 40 41 42 43 44 45 46 47 48 49 50
000
ASUS44 KOUN 161710
RWROK

WEATHER ROUNDUP FOR OKLAHOMA
NATIONAL WEATHER SERVICE NORMAN OK
1200 PM CDT WED AUG 16 2017

NOTE: "FAIR" INDICATES FEW OR NO CLOUDS BELOW 12,000 FEET WITH NO
      SIGNIFICANT WEATHER AND/OR OBSTRUCTIONS TO VISIBILITY.

OKZ001>007-009>012-014-015-017-161800-
NORTHWEST OKLAHOMA AND THE PANHANDLE

CITY           SKY/WX    TMP DP  RH WIND       PRES   REMARKS
GAGE           MOSUNNY   85  68  56 VRB7      29.89S
GUYMON         SUNNY     79  61  53 N12       29.98S
ENID/WOODRING  CLOUDY    90  75  62 SW10      29.85R HX 100
$$

OKZ016-021>023-033>039-044-045-161800-
SOUTHWEST OKLAHOMA

CITY           SKY/WX    TMP DP  RH WIND       PRES   REMARKS
LAWTON/REGL    MOSUNNY   87  74  64 SW14G25   29.89S HX  95
LAWTON/FT SILL SUNNY     88  77  71 S20       29.88S HX 100
FREDERICK      MOSUNNY   86  74  67 S18       29.86F HX  94
CLINTON        CLOUDY    82  70  66 SW12      29.90R
HOBART         SUNNY     85  72  65 SW24G30   29.88S HX  91
ALTUS AFB      MOSUNNY   87  69  55 S22       29.88S HX  91
$$

OKZ018>020-024>031-161800-
CENTRAL OKLAHOMA

CITY           SKY/WX    TMP DP  RH WIND       PRES   REMARKS
OKLAHOMA CITY  PTSUNNY   86  73  65 S17G24    29.88F HX  93
OKC/WILEY POST MOSUNNY   87  74  64 SW16G30   29.88S HX  95
OKC/TINKER AFB MOSUNNY   86  72  62 S14G20    29.89R HX  92
STILLWATER     CLOUDY    89  74  60 S14       29.86S HX  98
GUTHRIE        SUNNY     88  71  57 SW16G28   29.87R HX  94
$$

OKZ008-013-054>072-161800-
NORTHEAST OKLAHOMA

CITY           SKY/WX    TMP DP  RH WIND       PRES   REMARKS
TULSA          CLOUDY    87  76  69 S15G24    29.86S HX  97
TULSA/JONES    CLOUDY    88  74  63 S12G23    29.87S HX  96
PONCA CITY     MOSUNNY   86  72  62 SW8       29.84F HX  92
BARTLESVILLE   CLOUDY    89  77  67 S8        29.86F HX 101
MUSKOGEE       CLOUDY    84  76  76 S13G21    29.92S HX  93
$$

OKZ032-040>043-046>053-073>077-161800-
SOUTH CENTRAL/SOUTHEAST OKLAHOMA

CITY           SKY/WX    TMP DP  RH WIND       PRES   REMARKS
ARDMORE/DWNTWN DRIZZLE   79  72  78 SW6       29.93S
MCALESTER      RAIN      78  76  93 S13G20    29.97R FOG
$$





USA.gov is the U.S. government's official web portal to all federal, state and local government web resources and services.